Wind_Speed
11 11 11 12 12 13 13 12 13 14 13 13 14 15 15 16 17 18 19 20 20 21 22 23 23 24 23 23 24 24 24 25 25 25 24 25 26 27 27 27 28 28 28 29
11 12 12 11 11 11 10 10 12 13 12 12 13 14 15 16 17 18 19 20 21 22 23 23 24 24 24 25 25 25 24 25 25 25 25 24 25 27 28 28 29 30 30 30
11 12 11 11 10 10 10 10 11 12 11 11 12 14 15 15 16 17 18 20 21 22 23 23 24 25 25 26 26 26 25 26 25 25 26 26 25 26 27 28 29 29 30 30
11 11 10 10 10 9 10 11 11 11 10 11 11 12 15 16 17 18 19 20 20 21 22 23 24 25 26 27 27 27 27 27 27 26 26 26 27 26 26 27 28 28 28 29
11 10 10 10 10 10 11 11 10 11 11 11 12 12 15 17 17 18 19 20 20 21 22 23 24 25 26 26 27 27 27 28 28 28 27 27 27 27 27 27 27 27 27 28
9 9 10 11 10 11 10 10 11 11 10 11 13 13 14 17 17 18 19 19 20 21 21 23 24 24 24 25 26 26 27 28 29 29 28 28 28 28 28 28 28 28 28 28
9 10 10 10 10 11 10 9 9 9 10 11 15 14 15 17 17 18 19 19 20 20 21 21 22 22 23 23 24 25 26 27 28 28 28 28 28 28 28 28 28 29 28 28
9 10 11 10 11 11 11 10 10 11 11 12 15 14 15 16 17 17 18 18 18 19 19 19 20 21 22 22 23 24 25 25 26 27 27 27 28 28 28 28 28 29 28 28
11 12 11 11 11 11 11 12 12 12 12 11 12 15 16 16 16 16 16 17 18 18 18 18 19 20 20 21 22 23 24 25 26 26 27 26 27 28 28 28 29 29 29 29
11 12 11 11 11 12 12 13 13 11 11 11 12 13 14 14 14 15 15 16 17 17 17 18 19 19 19 20 21 22 23 24 25 25 26 27 27 28 28 28 29 29 29 30
10 11 12 12 12 12 12 13 12 12 12 12 12 12 15 15 14 14 14 15 16 17 18 19 20 21 21 21 22 23 24 24 25 26 26 27 28 28 28 28 29 29 29 30
12 12 13 13 13 13 13 13 12 12 12 12 12 13 15 15 14 15 15 16 17 19 19 20 21 22 23 23 24 24 25 25 25 25 26 27 27 27 28 28 29 29 29 29
13 14 13 12 13 14 14 14 13 12 12 12 13 14 16 16 16 16 17 18 19 21 22 22 23 24 24 25 25 25 26 26 26 26 26 26 26 26 27 28 27 27 28 28
14 15 14 14 14 14 13 14 14 13 13 13 14 15 16 17 18 18 20 21 21 22 23 24 24 25 25 26 26 26 26 26 26 26 25 25 25 25 25 25 25 25 25 25
15 16 16 15 15 14 13 14 14 14 13 14 14 15 17 18 19 20 21 21 22 23 24 25 25 26 26 26 26 26 26 25 25 24 23 23 23 22 22 23 23 22 22 22
14 14 14 14 14 14 14 14 14 14 14 14 15 17 17 18 19 20 21 22 23 25 26 26 26 26 26 25 25 26 25 24 23 22 22 21 20 20 19 20 20 20 20 20
14 14 13 13 14 13 13 14 14 14 14 15 16 17 17 18 19 20 21 23 24 25 26 26 25 25 25 25 25 24 23 22 21 21 20 19 17 16 16 16 17 18 18 19
14 14 13 13 13 13 13 13 13 14 14 14 15 16 17 19 19 20 21 23 24 25 25 24 24 24 24 24 23 21 20 20 20 19 18 17 16 16 15 15 15 15 16 16
14 14 13 12 12 12 12 13 13 14 14 14 15 16 17 18 20 20 22 23 23 23 23 23 22 22 21 20 19 18 18 18 17 16 15 14 14 14 13 13 14 13 13 14
13 13 13 12 11 12 13 12 12 12 13 13 15 15 17 18 20 20 20 21 21 21 21 20 19 19 19 18 17 16 16 15 14 13 12 12 12 11 11 10 11 11 11 11
11 12 12 11 11 12 11 10 11 12 13 14 15 16 17 18 18 19 19 20 20 20 19 17 17 17 16 16 15 14 13 12 10 9 9 9 9 8 8 7 7 8 8 8
9 10 10 10 10 11 10 10 11 12 13 14 15 16 17 17 17 17 18 18 18 18 16 15 15 14 13 13 13 11 10 8 7 6 6 6 6 5 5 5 5 5 5 6
9 9 9 9 10 10 9 10 11 12 13 13 15 16 16 16 16 16 16 17 17 15 14 13 12 12 11 11 10 9 7 6 5 4 3 3 3 3 3 2 2 3 3 4
9 9 9 9 9 10 10 11 11 11 12 13 14 14 15 14 14 15 15 15 14 13 12 11 10 9 9 9 8 7 6 5 4 3 3 3 2 2 2 2 2 2 1 1
9 9 9 9 9 9 9 10 11 11 12 12 13 13 13 13 13 13 13 12 11 10 10 10 9 8 7 7 7 7 6 6 5 5 5 5 5 5 5 4 5 5 4 4
8 9 9 8 9 9 9 9 9 9 10 11 11 12 11 11 11 10 10 9 9 9 9 9 8 7 7 7 7 7 7 7 7 7 7 7 7 7 7 7 7 7 7 7
Wind_Direction
205 206 208 210 207 209 210 214 226 235 239 243 249 254 260 262 262 265 268 267 266 268 270 271 271 271 273 275 276 276 275 274 273 273 273 273 273 272 268 265 263 262 260 259
204 208 212 213 214 214 214 219 231 240 244 248 253 257 262 264 265 267 269 269 269 271 270 270 270 271 271 273 275 275 275 273 272 271 273 272 271 272 269 265 265 264 260 258
205 215 215 214 213 215 220 220 232 242 250 254 257 263 265 265 266 268 271 272 272 272 272 272 272 272 273 274 273 271 273 273 272 271 271 272 271 272 270 265 264 264 260 258
212 216 214 213 214 214 226 231 238 247 254 261 264 268 271 267 267 270 272 274 274 274 275 277 275 275 275 274 272 270 271 271 272 271 271 270 270 271 271 267 266 265 262 260
217 215 213 214 218 218 227 237 244 251 254 261 269 266 269 270 269 272 274 276 277 277 277 279 279 278 277 275 273 271 271 271 272 272 272 271 271 272 272 272 269 266 263 263
218 217 217 220 224 228 238 245 253 258 265 269 270 269 270 273 273 275 277 278 281 281 281 281 282 280 278 276 274 273 271 271 273 273 272 271 272 273 272 271 271 268 265 263
217 221 225 229 233 238 242 246 256 264 267 267 272 271 269 273 277 278 280 281 283 284 283 283 283 284 283 279 277 276 275 273 274 274 273 272 272 272 271 270 269 269 266 263
219 229 232 233 236 241 247 244 243 252 259 267 279 277 275 279 280 282 283 284 285 286 286 285 288 288 285 282 280 278 275 275 274 274 274 275 274 272 272 270 270 269 268 266
217 226 237 239 241 243 250 249 249 257 266 272 276 280 281 281 283 284 286 287 288 290 290 288 290 293 290 287 283 280 278 277 277 276 275 275 274 272 272 272 272 270 269 268
223 228 239 243 246 248 251 256 258 257 264 273 281 286 286 287 287 288 290 290 290 291 291 293 295 296 296 292 288 284 284 282 280 278 276 275 274 273 274 273 271 271 270 268
230 232 240 247 248 253 261 264 265 263 261 270 279 280 285 290 291 292 291 292 295 296 295 297 297 296 296 295 291 289 287 285 283 281 279 277 275 275 275 273 272 273 272 272
235 236 240 248 254 256 260 264 265 265 270 273 277 279 285 291 292 292 293 294 296 298 298 297 298 299 297 295 292 290 288 286 285 283 281 280 278 276 275 275 275 275 275 273
238 240 245 252 258 259 259 259 261 264 271 276 279 282 287 289 291 292 294 296 298 299 299 299 299 300 298 296 294 291 290 288 286 285 285 283 281 278 276 277 276 275 274 273
240 239 237 239 247 256 261 260 262 267 272 280 280 281 286 289 291 293 296 298 299 300 301 302 301 301 299 298 296 294 292 290 289 288 288 286 285 282 278 276 276 276 274 272
243 241 240 242 246 250 256 260 264 267 273 279 280 282 285 291 293 294 297 300 301 302 303 303 301 301 300 299 297 295 293 291 290 289 289 288 286 283 279 277 276 275 273 272
244 243 244 246 252 255 256 259 265 269 273 278 282 284 288 293 295 295 297 299 301 303 304 304 302 301 300 300 298 296 293 291 291 290 291 290 287 285 282 280 275 274 276 275
244 242 244 249 255 258 258 260 264 269 272 279 286 289 291 294 297 297 298 299 302 304 304 304 303 303 303 301 300 296 294 292 292 292 291 289 287 285 283 280 277 275 275 276
241 241 246 248 254 258 259 259 262 269 277 284 288 292 294 297 299 301 303 306 307 306 304 304 304 304 305 304 302 298 295 293 293 290 289 288 287 285 282 279 278 275 272 273
242 242 244 248 252 257 260 259 263 271 279 284 289 293 296 298 299 303 307 309 310 309 307 306 306 307 307 307 304 300 297 294 292 288 286 284 285 286 283 279 277 277 274 274
243 241 246 250 252 254 257 262 266 273 281 284 289 294 298 301 305 308 309 311 312 312 311 310 310 310 310 310 309 304 301 297 292 289 286 285 285 286 284 277 276 278 278 279
242 240 244 248 250 252 258 265 268 275 283 290 295 300 303 306 309 311 312 314 315 315 315 315 315 316 316 314 314 311 307 302 296 296 292 286 283 281 280 278 279 284 286 285
240 239 242 244 248 256 261 266 271 280 287 296 302 304 305 308 312 313 316 318 318 320 320 320 320 321 321 320 321 320 318 311 304 301 294 286 283 285 282 283 287 289 294 296
237 236 239 242 249 258 264 270 278 287 295 301 305 307 307 309 312 314 318 320 322 325 326 327 329 332 333 334 336 336 334 330 320 312 311 304 299 297 290 296 296 303 305 309
236 232 235 242 249 256 264 274 285 289 295 300 306 311 310 311 314 318 321 326 330 332 332 334 339 342 347 353 358 1 3 4 9 22 33 37 42 49 47 48 33 27 16 4
235 235 237 244 253 263 270 279 286 292 297 302 308 314 315 316 318 322 326 331 337 342 346 349 351 354 3 9 15 18 27 40 48 59 66 70 75 79 70 68 63 63 61 60
239 238 242 250 260 266 274 282 289 297 305 311 315 318 320 322 323 326 331 336 342 349 354 359 6 13 19 27 34 39 44 50 58 67 74 78 80 77 75 76 74 71 68 68
Height
5818 5821 5823 5826 5828 5830 5832 5834 5836 5837 5838 5840 5841 5841 5842 5843 5843 5843 5843 5843 5842 5843 5842 5842 5841 5841 5840 5840 5839 5838 5837 5837 5836 5836 5836 5835 5835 5834 5834 5834 5833 5833 5834 5834
5817 5819 5821 5823 5826 5828 5830 5832 5834 5834 5835 5837 5838 5838 5839 5839 5839 5839 5838 5838 5838 5837 5837 5836 5835 5835 5834 5834 5833 5832 5831 5830 5830 5830 5829 5828 5828 5827 5827 5827 5826 5826 5827 5827
5816 5818 5819 5822 5824 5826 5828 5831 5832 5832 5833 5834 5835 5836 5835 5835 5835 5835 5834 5833 5832 5832 5831 5830 5829 5828 5828 5827 5826 5826 5825 5824 5824 5823 5823 5822 5821 5821 5820 5820 5819 5819 5819 5820
5813 5815 5818 5820 5822 5825 5827 5827 5829 5830 5831 5833 5833 5835 5832 5831 5831 5830 5829 5828 5827 5826 5825 5824 5823 5822 5821 5820 5819 5819 5818 5818 5817 5817 5816 5815 5815 5814 5814 5813 5813 5812 5812 5812
5812 5814 5816 5819 5821 5822 5824 5825 5826 5827 5829 5830 5830 5831 5830 5827 5826 5826 5825 5824 5822 5821 5820 5818 5817 5816 5814 5813 5812 5812 5811 5811 5810 5810 5809 5809 5808 5807 5806 5806 5806 5806 5805 5805
5810 5812 5814 5816 5818 5819 5821 5823 5824 5824 5826 5828 5827 5827 5827 5823 5822 5821 5820 5819 5817 5816 5814 5813 5811 5809 5808 5807 5805 5805 5804 5803 5803 5802 5802 5801 5801 5800 5799 5799 5798 5798 5798 5798
5809 5811 5812 5814 5816 5817 5819 5821 5824 5825 5825 5825 5822 5822 5822 5819 5817 5816 5815 5814 5812 5810 5809 5807 5805 5803 5802 5800 5799 5798 5797 5797 5796 5795 5794 5794 5794 5793 5792 5791 5791 5790 5790 5791
5809 5811 5810 5812 5814 5815 5816 5819 5822 5823 5822 5822 5818 5817 5817 5814 5812 5811 5810 5808 5807 5805 5803 5801 5800 5798 5796 5794 5793 5792 5791 5790 5789 5788 5787 5787 5786 5786 5785 5784 5784 5783 5783 5783
5807 5809 5808 5809 5811 5813 5814 5815 5816 5817 5817 5817 5816 5813 5811 5809 5808 5807 5805 5804 5802 5800 5798 5796 5795 5793 5791 5789 5787 5786 5785 5784 5782 5781 5780 5779 5779 5778 5778 5777 5776 5776 5776 5775
5803 5805 5806 5807 5808 5809 5811 5811 5812 5813 5813 5813 5813 5810 5808 5805 5804 5803 5801 5799 5798 5796 5794 5792 5790 5788 5786 5784 5782 5780 5779 5777 5776 5775 5774 5773 5772 5771 5770 5769 5769 5768 5768 5767
5801 5803 5804 5804 5805 5806 5807 5807 5808 5809 5809 5809 5809 5810 5804 5802 5800 5799 5797 5795 5793 5791 5789 5787 5785 5783 5781 5778 5776 5774 5773 5771 5769 5768 5766 5765 5764 5763 5763 5762 5761 5760 5759 5759
5798 5800 5801 5802 5802 5802 5803 5804 5804 5805 5805 5804 5804 5806 5800 5798 5796 5794 5793 5791 5789 5787 5784 5782 5780 5777 5775 5772 5770 5768 5766 5764 5762 5761 5759 5758 5757 5756 5755 5754 5753 5752 5751 5750
5795 5796 5798 5799 5801 5800 5799 5800 5800 5801 5801 5800 5800 5801 5796 5794 5792 5790 5788 5786 5784 5782 5779 5776 5774 5771 5769 5766 5763 5761 5759 5757 5755 5753 5752 5750 5749 5748 5747 5745 5744 5743 5743 5742
5791 5792 5795 5797 5796 5796 5796 5796 5796 5797 5797 5796 5796 5794 5792 5789 5787 5785 5783 5781 5779 5776 5773 5770 5768 5765 5762 5759 5756 5754 5752 5750 5748 5746 5744 5742 5741 5740 5739 5738 5737 5736 5735 5734
5787 5788 5789 5790 5791 5792 5792 5792 5792 5792 5792 5792 5791 5789 5787 5785 5783 5781 5778 5776 5773 5770 5767 5764 5761 5758 5755 5752 5749 5747 5744 5742 5740 5738 5737 5735 5733 5732 5731 5730 5729 5729 5728 5727
5782 5784 5785 5786 5787 5788 5788 5788 5788 5788 5787 5787 5786 5784 5782 5780 5778 5775 5773 5770 5768 5764 5761 5758 5754 5751 5748 5745 5742 5740 5737 5735 5733 5731 5730 5728 5727 5726 5725 5724 5723 5722 5722 5721
5778 5780 5781 5783 5783 5784 5784 5784 5784 5784 5783 5782 5781 5780 5777 5775 5773 5770 5768 5765 5762 5758 5754 5751 5747 5744 5741 5738 5735 5733 5730 5728 5726 5725 5723 5722 5721 5720 5719 5718 5717 5717 5716 5716
5774 5775 5777 5779 5780 5780 5782 5780 5780 5779 5778 5777 5776 5774 5772 5770 5768 5765 5762 5759 5755 5752 5748 5744 5741 5738 5735 5731 5728 5726 5724 5722 5720 5719 5717 5717 5716 5715 5714 5713 5712 5712 5711 5711
5770 5772 5773 5775 5776 5776 5777 5776 5776 5775 5774 5773 5771 5770 5767 5765 5762 5760 5757 5753 5750 5746 5742 5739 5735 5732 5729 5726 5723 5720 5718 5716 5715 5713 5712 5712 5711 5710 5709 5709 5708 5708 5708 5707
5766 5768 5770 5771 5772 5773 5773 5772 5771 5772 5771 5769 5767 5765 5763 5760 5758 5755 5751 5748 5744 5740 5737 5733 5730 5727 5724 5721 5718 5715 5713 5711 5710 5709 5708 5708 5707 5706 5706 5705 5705 5705 5704 5703
5763 5764 5766 5767 5768 5769 5769 5768 5769 5769 5768 5765 5763 5761 5758 5756 5754 5751 5747 5743 5740 5736 5732 5729 5726 5723 5720 5717 5714 5712 5710 5708 5707 5706 5705 5704 5704 5703 5703 5702 5702 5702 5702 5701
5760 5762 5763 5764 5765 5767 5765 5765 5765 5765 5762 5760 5759 5756 5754 5752 5749 5746 5743 5739 5736 5732 5729 5725 5722 5719 5717 5714 5711 5709 5707 5705 5704 5703 5703 5702 5702 5701 5701 5700 5700 5700 5700 5699
5757 5759 5760 5762 5764 5762 5762 5762 5761 5760 5758 5757 5755 5753 5750 5748 5745 5742 5739 5736 5732 5729 5726 5723 5720 5717 5715 5712 5710 5708 5706 5704 5703 5702 5701 5701 5700 5700 5700 5699 5699 5699 5698 5698
5755 5756 5757 5758 5759 5759 5759 5758 5757 5756 5755 5753 5751 5749 5746 5744 5742 5739 5736 5733 5730 5727 5724 5721 5719 5716 5714 5712 5710 5707 5706 5704 5703 5702 5701 5700 5700 5700 5699 5699 5699 5698 5698 5697
5752 5753 5755 5755 5756 5756 5756 5755 5754 5753 5752 5750 5748 5746 5743 5741 5739 5736 5733 5731 5728 5725 5723 5720 5718 5716 5714 5712 5710 5708 5706 5705 5704 5703 5702 5701 5701 5700 5700 5699 5699 5698 5698 5698
5749 5751 5753 5753 5754 5754 5753 5753 5751 5750 5749 5747 5745 5743 5741 5738 5736 5734 5732 5729 5727 5725 5722 5720 5718 5716 5714 5712 5711 5709 5708 5706 5705 5704 5703 5703 5702 5702 5701 5701 5700 5700 5699 5699